This is the latest recevied weather packets stored in our database for station/object N7ZAP. If no packets are shown the sender has not sent any weather packets the latest 10 day(s).
| Time | Temp. | Humidity | Pressure | Rain* | Wind** | Luminosity | Snow |
|---|---|---|---|---|---|---|---|
| 1787940650 | 34.44° C | 24% | 1024.9 hPa | 0 mm | - | - | - |
| 1787940349 | 34.44° C | 24% | 1025 hPa | 0 mm | - | - | - |
| 1787940049 | 34.44° C | 24% | 1024.9 hPa | 0 mm | - | - | - |
| 1787939748 | 35° C | 24% | 1025.2 hPa | 0 mm | - | - | - |
| 1787939443 | 33.89° C | 24% | 1025 hPa | 0 mm | - | - | - |
| 1787939138 | 33.89° C | 24% | 1025.3 hPa | 0 mm | - | - | - |
| 1787938838 | 34.44° C | 24% | 1025.2 hPa | 0 mm | - | - | - |
| 1787938532 | 33.89° C | 25% | 1025.3 hPa | 0 mm | - | - | - |
| 1787938228 | 33.89° C | 25% | 1025.3 hPa | 0 mm | - | - | - |
| 1787937923 | 33.33° C | 26% | 1025.3 hPa | 0 mm | - | - | - |
| 1787937619 | 32.78° C | 26% | 1025.2 hPa | 0 mm | - | - | - |
| 1787937315 | 32.78° C | 26% | 1025.3 hPa | 0 mm | - | - | - |
| 1787937010 | 32.78° C | 26% | 1025.5 hPa | 0 mm | - | - | - |
| 1787936709 | 32.78° C | 26% | 1025.6 hPa | 0 mm | - | - | - |
| 1787936409 | 32.22° C | 27% | 1025.4 hPa | 0 mm | - | - | - |
| 1787936104 | 31.67° C | 28% | 1025.5 hPa | 0 mm | - | - | - |
| 1787935800 | 31.67° C | 28% | 1025.5 hPa | 0 mm | - | - | - |
| 1787935495 | 31.67° C | 28% | 1025.6 hPa | 0 mm | - | - | - |
| 1787935191 | 31.67° C | 28% | 1025.5 hPa | 0 mm | - | - | - |
| 1787934887 | 31.11° C | 28% | 1025.7 hPa | 0 mm | - | - | - |
| 1787934585 | 31.11° C | 28% | 1025.7 hPa | 0 mm | - | - | - |
| 1787934280 | 31.67° C | 28% | 1025.7 hPa | 0 mm | - | - | - |
| 1787933980 | 30.56° C | 29% | 1025.7 hPa | 0 mm | - | - | - |
| 1787933679 | 30.56° C | 29% | 1026 hPa | 0 mm | - | - | - |
| 1787933374 | 30.56° C | 29% | 1025.7 hPa | 0 mm | - | - | - |
* Rain latest hour (hover to see other rain measurements)
** Current wind speed in m/s (hover to see current wind gust speed)